Lamar, CO

2:56 AM MST on November 22, 2019 (GMT -0700)
Lamar Municipal

Weather History for KLAA - September, 2019

Change the Weather History Date:

Monday, September 23, 2019

  Actual Average Record
Temperature  
Mean Temperature 69 °F 63 °F  
Max Temperature 90 °F 80 °F 99 °F (1926)
Min Temperature 48 °F 47 °F 29 °F (1946)
Degree Days  
Heating Degree Days 0 4  
Month to date heating degree days 4 43  
Since 1 July heating degree days 4 48  
Cooling Degree Days 4 2  
Month to date cooling degree days 246 109  
Year to date cooling degree days 1348 1098  
Growing Degree Days 19 (Base 50)    
Moisture  
Dew Point 47 °F    
Average Humidity 51    
Maximum Humidity 86    
Minimum Humidity 16    
Precipitation  
Precipitation 0.00 in 0.04 in 1.08 in (2017)
Month to date precipitation 0.51 1.05  
Year to date precipitation 7.74 13.42  
Sea Level Pressure  
Sea Level Pressure 29.91 in    
Wind  
Wind Speed 8 mph (ESE)    
Max Wind Speed 22 mph    
Max Gust Speed 33 mph    
Visibility 10 miles    
Events      
T = Trace of Precipitation, MM = Missing Value Source: NWS Daily Summary

Daily Weather History Graph

Daily Weather History Graph

Search for Another Location

Airport or City:

Astronomy

Sep. 23, 2019 Rise Set
Actual Time 6:39 AM MDT 6:46 PM MDT
Civil Twilight 6:12 AM MDT 7:12 PM MDT
Nautical Twilight 5:42 AM MDT 7:43 PM MDT
Astronomical Twilight 5:11 AM MDT 8:14 PM MDT
Moon 12:30 AM MDT (9/23) 3:36 PM MDT (9/23)
Length of Visible Light 12h 59m
Length of Day
12h 07m
Waning Crescent, 32% of the Moon is Illuminated
Sep 23
Waning Crescent
Sep 28
New
Oct 5
First Quarter
Oct 13
Full
Oct 21
Last Quarter

Hourly Weather History & Observations

Time (MDT) Temp. Dew Point Humidity Pressure Visibility Wind Dir Wind Speed Gust Speed Precip Events Conditions
12:53 AM 55.0 °F 44.1 °F 67% 30.01 in 10.0 mi SSE 6.9 mph - N/A   Clear
1:53 AM 50.0 °F 44.1 °F 80% 30.01 in 10.0 mi SE 4.6 mph - N/A   Clear
3:53 AM 52.0 °F 44.1 °F 74% 29.98 in 10.0 mi SE 8.1 mph - N/A   Clear
4:53 AM 51.1 °F 45.0 °F 80% 29.97 in 10.0 mi SE 6.9 mph - N/A   Clear
5:53 AM 48.9 °F 44.1 °F 83% 29.99 in 10.0 mi East 6.9 mph - N/A   Clear
6:53 AM 50.0 °F 46.0 °F 86% 30.01 in 10.0 mi East 6.9 mph - N/A   Clear
7:53 AM 55.0 °F 48.0 °F 77% 30.02 in 10.0 mi ENE 5.8 mph - N/A   Clear
8:53 AM 64.9 °F 51.1 °F 61% 30.01 in 10.0 mi Variable 3.5 mph - N/A   Clear
9:53 AM 71.1 °F 53.1 °F 53% 30.01 in 10.0 mi NNW 6.9 mph - N/A   Clear
10:53 AM 73.9 °F 52.0 °F 46% 29.99 in 10.0 mi Variable 6.9 mph - N/A   Clear
11:53 AM 79.0 °F 52.0 °F 39% 29.95 in 10.0 mi NW 5.8 mph - N/A   Clear
12:53 PM 84.0 °F 51.1 °F 32% 29.89 in 10.0 mi North 12.7 mph 16.1 mph N/A   Clear
1:53 PM 86.0 °F 50.0 °F 29% 29.86 in 10.0 mi NNW 10.4 mph - N/A   Clear
2:53 PM 90.0 °F 37.0 °F 15% 29.83 in 10.0 mi SSW 10.4 mph 21.9 mph N/A   Clear
3:53 PM 88.0 °F 46.0 °F 23% 29.82 in 10.0 mi NW 10.4 mph - N/A   Clear
4:53 PM 88.0 °F 45.0 °F 22% 29.80 in 10.0 mi NNW 9.2 mph - N/A   Clear
5:53 PM 84.0 °F 46.0 °F 26% 29.81 in 10.0 mi NNE 3.5 mph - N/A   Clear
6:53 PM 75.9 °F 48.0 °F 37% 29.83 in 9.0 mi ENE 4.6 mph - N/A   Clear
7:53 PM 71.1 °F 46.0 °F 41% 29.85 in 10.0 mi ESE 6.9 mph - N/A   Clear
8:53 PM 66.9 °F 43.0 °F 42% 29.84 in 10.0 mi SSW 4.6 mph - N/A   Clear
9:53 PM 70.0 °F 45.0 °F 41% 29.83 in 10.0 mi SSE 3.5 mph - N/A   Clear
10:53 PM 72.0 °F 55.0 °F 55% 29.81 in 10.0 mi South 15.0 mph 25.3 mph N/A   Clear
11:53 PM 71.1 °F 55.9 °F 59% 29.79 in 10.0 mi SSW 12.7 mph 27.6 mph N/A   Clear